SBI7520 ZWWW-ZJSY

Flight info

Callsign SBI7520
Flight time N/A
Altitude 37100
Route ZWWW N0440F371 FKG01D FKG W192 LUPRO V116 ESDEX W191 DNC QNX V86 BSE R339 WUY W169 RUNEG V41 DABUB DAB8ZA SYS501 SYS504 FF26 RW26 ZJSY
Aircraft B738/M-SDGIWZ/S

Departure

Time 2026-04-27 12:45
Airport Ürümqi Tianshan International Airport (ZWWW)

Arrival

Time N/A
Airport Sanya Phoenix International Airport (ZJSY)
Time Latitude Longitude Altitude Speed Heading
2026-04-27 12:30 43.89740 87.46399 2134 ft 0 kts 179°
2026-04-27 12:41 43.89742 87.46399 2134 ft 1 kts 179°
2026-04-27 12:41 43.89762 87.46398 2134 ft 4 kts 179°
2026-04-27 12:41 43.89786 87.46417 2134 ft 4 kts 258°
2026-04-27 12:41 43.89787 87.46425 2134 ft 3 kts 262°
2026-04-27 12:42 43.89784 87.46349 2134 ft 12 kts 269°
2026-04-27 12:42 43.89784 87.46202 2134 ft 16 kts 270°
2026-04-27 12:42 43.89784 87.46053 2134 ft 13 kts 282°
2026-04-27 12:42 43.89853 87.45993 2134 ft 13 kts 345°
2026-04-27 12:43 43.89951 87.45954 2134 ft 15 kts 344°
2026-04-27 12:43 43.90060 87.45908 2134 ft 17 kts 342°
2026-04-27 12:43 43.90176 87.45853 2134 ft 16 kts 318°
2026-04-27 12:43 43.90170 87.45702 2134 ft 17 kts 254°
2026-04-27 12:44 43.90131 87.45520 2134 ft 22 kts 254°
2026-04-27 12:44 43.90127 87.45342 2134 ft 16 kts 331°
2026-04-27 12:44 43.90223 87.45297 2134 ft 14 kts 359°
2026-04-27 12:44 43.90317 87.45552 2134 ft 62 kts 73°
2026-04-27 12:45 43.90499 87.46409 2134 ft 123 kts 74°
2026-04-27 12:45 43.90794 87.47799 2136 ft 173 kts 73°
2026-04-27 12:45 43.91160 87.49495 2380 ft 194 kts 72°
2026-04-27 12:45 43.91569 87.51321 2883 ft 203 kts 73°
2026-04-27 12:46 43.91929 87.53162 3676 ft 196 kts 74°
2026-04-27 12:46 43.92291 87.55066 3840 ft 220 kts 74°
2026-04-27 12:46 43.92701 87.57205 4159 ft 236 kts 74°
2026-04-27 12:46 43.93127 87.59428 4621 ft 245 kts 74°
2026-04-27 12:47 43.93570 87.61758 5089 ft 255 kts 74°
2026-04-27 12:47 43.94024 87.64156 5751 ft 261 kts 74°
2026-04-27 12:47 43.94493 87.66653 6222 ft 274 kts 74°
2026-04-27 12:47 43.94972 87.69214 6900 ft 279 kts 74°
2026-04-27 12:48 43.95461 87.71845 7526 ft 285 kts 74°
2026-04-27 12:48 43.95955 87.74517 8198 ft 289 kts 74°
2026-04-27 12:48 43.96453 87.77227 8842 ft 293 kts 74°
2026-04-27 12:48 43.96954 87.79961 9473 ft 296 kts 74°
2026-04-27 12:49 43.97462 87.82737 10088 ft 300 kts 74°
2026-04-27 12:49 43.97984 87.85583 10349 ft 317 kts 74°
2026-04-27 12:49 43.98554 87.88661 10462 ft 337 kts 74°
2026-04-27 12:49 43.99160 87.91914 10547 ft 357 kts 74°
2026-04-27 12:50 43.99791 87.95282 11026 ft 363 kts 73°
2026-04-27 12:50 44.00427 87.98673 11468 ft 370 kts 73°
2026-04-27 12:50 44.01080 88.02138 12006 ft 373 kts 73°
2026-04-27 12:50 44.01735 88.05608 12492 ft 377 kts 73°
2026-04-27 12:51 44.02399 88.09122 13017 ft 379 kts 73°
2026-04-27 12:51 44.03070 88.12678 13516 ft 382 kts 73°
2026-04-27 12:51 44.03748 88.16272 13995 ft 385 kts 73°
2026-04-27 12:51 44.04427 88.19877 14467 ft 387 kts 73°
2026-04-27 12:52 44.05099 88.23505 14918 ft 391 kts 76°
2026-04-27 12:52 44.05307 88.27251 15260 ft 398 kts 96°
2026-04-27 12:52 44.04458 88.30873 15789 ft 398 kts 120°
2026-04-27 12:52 44.02875 88.34046 16169 ft 402 kts 127°
2026-04-27 12:53 43.99681 88.40485 16959 ft 407 kts 122°
2026-04-27 12:53 43.98184 88.43793 17319 ft 410 kts 122°
2026-04-27 12:53 43.96679 88.47146 17708 ft 412 kts 121°
2026-04-27 12:54 43.95161 88.50556 18078 ft 414 kts 121°
2026-04-27 12:54 43.93665 88.53944 18438 ft 417 kts 121°
2026-04-27 12:54 43.92157 88.57371 18782 ft 419 kts 121°
2026-04-27 12:54 43.90627 88.60849 19127 ft 421 kts 121°
2026-04-27 12:55 43.89116 88.64288 19460 ft 423 kts 121°
2026-04-27 12:55 43.87580 88.67783 19777 ft 425 kts 122°
2026-04-27 12:55 43.86031 88.71307 20095 ft 427 kts 122°
2026-04-27 12:55 43.84493 88.74801 20390 ft 429 kts 122°
2026-04-27 12:56 43.82936 88.78334 20700 ft 431 kts 122°
2026-04-27 12:56 43.81368 88.81889 20966 ft 434 kts 122°
2026-04-27 12:56 43.79810 88.85416 21211 ft 436 kts 122°
2026-04-27 12:56 43.78217 88.89018 21467 ft 439 kts 122°
2026-04-27 12:57 43.76617 88.92634 21696 ft 442 kts 122°
2026-04-27 12:57 43.75013 88.96253 21949 ft 444 kts 122°
2026-04-27 12:57 43.73402 88.99882 22151 ft 447 kts 122°
2026-04-27 12:57 43.71764 89.03569 22383 ft 450 kts 122°
2026-04-27 12:58 43.70142 89.07217 22629 ft 451 kts 122°
2026-04-27 12:58 43.68498 89.10905 22877 ft 453 kts 122°
2026-04-27 12:58 43.66833 89.14640 23130 ft 454 kts 122°
2026-04-27 12:58 43.65185 89.18329 23349 ft 456 kts 122°
2026-04-27 12:59 43.63524 89.22047 23563 ft 458 kts 122°
2026-04-27 12:59 43.61851 89.25783 23827 ft 458 kts 122°
2026-04-27 12:59 43.60184 89.29500 24054 ft 460 kts 122°
2026-04-27 12:59 43.58483 89.33290 24270 ft 461 kts 122°
2026-04-27 13:00 43.56805 89.37025 24481 ft 462 kts 122°
2026-04-27 13:00 43.55122 89.40775 24710 ft 463 kts 122°
2026-04-27 13:00 43.53445 89.44601 24899 ft 465 kts 121°
2026-04-27 13:00 43.51795 89.48424 25092 ft 467 kts 121°
2026-04-27 13:01 43.50133 89.52257 25281 ft 468 kts 121°
2026-04-27 13:01 43.48470 89.56071 25485 ft 469 kts 121°
2026-04-27 13:01 43.46777 89.59944 25647 ft 471 kts 121°
2026-04-27 13:01 43.45101 89.63777 25851 ft 471 kts 121°
2026-04-27 13:02 43.43413 89.67632 26013 ft 473 kts 122°
2026-04-27 13:02 43.41713 89.71506 26197 ft 473 kts 122°
2026-04-27 13:02 43.40016 89.75369 26333 ft 475 kts 122°
2026-04-27 13:02 43.38311 89.79244 26518 ft 476 kts 122°
2026-04-27 13:03 43.36597 89.83136 26630 ft 478 kts 122°
2026-04-27 13:03 43.34883 89.87022 26821 ft 478 kts 122°
2026-04-27 13:03 43.33144 89.90956 26965 ft 479 kts 122°
2026-04-27 13:03 43.31433 89.94826 27114 ft 480 kts 122°
2026-04-27 13:04 43.29701 89.98734 27259 ft 481 kts 122°
2026-04-27 13:04 43.27952 90.02677 27380 ft 483 kts 122°
2026-04-27 13:04 43.26205 90.06609 27532 ft 483 kts 122°
2026-04-27 13:04 43.24471 90.10509 27684 ft 484 kts 122°
2026-04-27 13:05 43.22708 90.14465 27788 ft 485 kts 122°
2026-04-27 13:05 43.20965 90.18371 27963 ft 485 kts 122°
2026-04-27 13:05 43.19193 90.22332 28066 ft 487 kts 122°
2026-04-27 13:05 43.17425 90.26289 28181 ft 488 kts 122°
2026-04-27 13:06 43.15660 90.30243 28315 ft 488 kts 122°
2026-04-27 13:06 43.13905 90.34174 28383 ft 490 kts 122°
2026-04-27 13:06 43.12117 90.38165 28542 ft 490 kts 122°
2026-04-27 13:06 43.10345 90.42104 28661 ft 491 kts 122°
2026-04-27 13:07 43.06755 90.50062 28863 ft 493 kts 122°
2026-04-27 13:07 43.04949 90.54054 28986 ft 493 kts 122°
2026-04-27 13:07 43.03169 90.57979 29072 ft 494 kts 122°
2026-04-27 13:08 43.01353 90.61980 29189 ft 494 kts 122°
2026-04-27 13:08 42.99537 90.65977 29307 ft 495 kts 123°
2026-04-27 13:08 42.95933 90.73930 29549 ft 494 kts 122°
2026-04-27 13:09 42.94131 90.77906 29782 ft 491 kts 123°
2026-04-27 13:09 42.92335 90.81858 29938 ft 490 kts 123°
2026-04-27 13:09 42.90412 90.85696 30070 ft 489 kts 129°
2026-04-27 13:09 42.88179 90.89092 30219 ft 486 kts 139°
2026-04-27 13:10 42.85528 90.91918 30319 ft 482 kts 150°
2026-04-27 13:10 42.82632 90.94196 30509 ft 479 kts 154°
2026-04-27 13:10 42.76853 90.98630 30647 ft 481 kts 152°
2026-04-27 13:11 42.71084 91.03164 30810 ft 482 kts 152°
2026-04-27 13:11 42.65241 91.07694 30987 ft 483 kts 152°
2026-04-27 13:12 42.59454 91.12166 31159 ft 484 kts 152°
2026-04-27 13:12 42.53616 91.16657 31336 ft 483 kts 153°
2026-04-27 13:13 42.50699 91.18881 31826 ft 473 kts 154°
2026-04-27 13:13 42.47887 91.21029 32023 ft 471 kts 154°
2026-04-27 13:13 42.45030 91.23215 32135 ft 470 kts 154°
2026-04-27 13:13 42.42188 91.25394 32267 ft 469 kts 153°
2026-04-27 13:14 42.36542 91.29753 32414 ft 470 kts 153°
2026-04-27 13:14 42.30907 91.34091 32577 ft 470 kts 153°
2026-04-27 13:15 42.25206 91.38438 32720 ft 471 kts 154°
2026-04-27 13:15 42.19498 91.42741 32886 ft 471 kts 154°
2026-04-27 13:16 42.13817 91.47018 33036 ft 471 kts 153°
2026-04-27 13:16 42.08105 91.51312 33186 ft 471 kts 154°
2026-04-27 13:17 42.02402 91.55606 33321 ft 472 kts 153°
2026-04-27 13:17 41.96706 91.59914 33481 ft 472 kts 153°
2026-04-27 13:18 41.91009 91.64233 33629 ft 472 kts 153°
2026-04-27 13:18 41.85310 91.68520 33765 ft 471 kts 154°
2026-04-27 13:19 41.79626 91.72797 33909 ft 471 kts 154°
2026-04-27 13:19 41.73933 91.77086 34070 ft 470 kts 154°
2026-04-27 13:20 41.68243 91.81329 34203 ft 470 kts 154°
2026-04-27 13:20 41.62893 91.86266 34334 ft 474 kts 136°
2026-04-27 13:21 41.60863 91.89740 34427 ft 475 kts 124°
2026-04-27 13:21 41.59125 91.93446 34517 ft 475 kts 123°
2026-04-27 13:21 41.55539 92.00825 34639 ft 475 kts 125°
2026-04-27 13:22 41.51929 92.08129 34762 ft 474 kts 124°
2026-04-27 13:22 41.48346 92.15520 34910 ft 474 kts 124°
2026-04-27 13:23 41.44800 92.22871 35048 ft 473 kts 124°
2026-04-27 13:23 41.41256 92.30200 35172 ft 473 kts 124°
2026-04-27 13:24 41.37706 92.37539 35291 ft 473 kts 124°
2026-04-27 13:24 41.34110 92.44896 35411 ft 472 kts 124°
2026-04-27 13:25 41.30556 92.52189 35530 ft 472 kts 124°
2026-04-27 13:25 41.26978 92.59486 35665 ft 471 kts 124°
2026-04-27 13:26 41.23402 92.66743 35804 ft 471 kts 125°
2026-04-27 13:26 41.19849 92.73958 35925 ft 469 kts 125°
2026-04-27 13:27 41.16287 92.81204 36046 ft 469 kts 125°
2026-04-27 13:27 41.12727 92.88435 36165 ft 468 kts 125°
2026-04-27 13:28 41.09152 92.95575 36288 ft 466 kts 126°
2026-04-27 13:28 41.05599 93.02695 36419 ft 465 kts 126°
2026-04-27 13:29 41.02065 93.09800 36537 ft 464 kts 127°
2026-04-27 13:29 40.98513 93.16898 36638 ft 463 kts 127°
2026-04-27 13:30 40.94953 93.24003 36738 ft 463 kts 128°
2026-04-27 13:30 40.91418 93.31047 36839 ft 462 kts 128°
2026-04-27 13:31 40.87856 93.38129 36939 ft 461 kts 128°
2026-04-27 13:31 40.84316 93.45152 37038 ft 460 kts 127°
2026-04-27 13:32 40.82558 93.48637 37145 ft 459 kts 128°
2026-04-27 13:32 40.80801 93.52113 37144 ft 460 kts 128°
2026-04-27 13:32 40.77253 93.59120 37147 ft 461 kts 128°
2026-04-27 13:33 40.73557 93.66020 37148 ft 460 kts 133°
2026-04-27 13:33 40.69518 93.72523 37146 ft 461 kts 134°
2026-04-27 13:34 40.65529 93.79102 37147 ft 462 kts 133°
2026-04-27 13:34 40.61527 93.85699 37147 ft 463 kts 133°
2026-04-27 13:35 40.57513 93.92309 37146 ft 464 kts 133°
2026-04-27 13:35 40.53505 93.98902 37146 ft 465 kts 133°
2026-04-27 13:36 40.49461 94.05543 37148 ft 466 kts 133°
2026-04-27 13:36 40.45423 94.12164 37146 ft 467 kts 133°
2026-04-27 13:37 40.41381 94.18778 37147 ft 467 kts 133°
2026-04-27 13:37 40.37327 94.25396 37147 ft 468 kts 133°
2026-04-27 13:38 40.33229 94.32073 37146 ft 469 kts 133°
2026-04-27 13:38 40.29151 94.38705 37148 ft 470 kts 133°
2026-04-27 13:39 40.25069 94.45327 37146 ft 471 kts 133°
2026-04-27 13:39 40.20958 94.51984 37147 ft 471 kts 133°
2026-04-27 13:40 40.16857 94.58608 37147 ft 472 kts 133°
2026-04-27 13:40 40.12732 94.65274 37146 ft 474 kts 133°
2026-04-27 13:41 40.09126 94.72508 37149 ft 479 kts 121°
2026-04-27 13:41 40.06208 94.80328 37146 ft 480 kts 120°
2026-04-27 13:42 40.03239 94.88080 37147 ft 480 kts 121°
2026-04-27 13:42 40.00285 94.95854 37147 ft 480 kts 121°
2026-04-27 13:43 39.97319 95.03677 37147 ft 481 kts 121°
2026-04-27 13:43 39.94367 95.11450 37146 ft 481 kts 121°
2026-04-27 13:44 39.91408 95.19228 37146 ft 482 kts 121°
2026-04-27 13:44 39.88463 95.27056 37148 ft 482 kts 121°
2026-04-27 13:45 39.85518 95.34850 37184 ft 482 kts 121°
2026-04-27 13:45 39.82536 95.42666 37237 ft 481 kts 121°
2026-04-27 13:46 39.79569 95.50442 37290 ft 481 kts 121°
2026-04-27 13:46 39.76597 95.58194 37310 ft 482 kts 121°
2026-04-27 13:47 39.73592 95.65991 37309 ft 482 kts 122°
2026-04-27 13:47 39.70588 95.73738 37308 ft 481 kts 122°
2026-04-27 13:48 39.67615 95.81438 37310 ft 482 kts 122°
2026-04-27 13:48 39.64632 95.89195 37309 ft 481 kts 122°
2026-04-27 13:49 39.61606 95.96948 37309 ft 482 kts 122°
2026-04-27 13:49 39.58591 96.04642 37309 ft 482 kts 122°
2026-04-27 13:50 39.55576 96.12378 37309 ft 482 kts 122°
2026-04-27 13:50 39.52528 96.20100 37309 ft 482 kts 122°
2026-04-27 13:51 39.49480 96.27801 37308 ft 482 kts 122°
2026-04-27 13:51 39.46460 96.35483 37309 ft 482 kts 122°
2026-04-27 13:52 39.43398 96.43213 37309 ft 482 kts 122°
2026-04-27 13:52 39.40339 96.50856 37309 ft 481 kts 122°
2026-04-27 13:53 39.35735 96.62360 37309 ft 481 kts 122°
2026-04-27 13:54 39.32667 96.69992 37309 ft 481 kts 123°
2026-04-27 13:54 39.29586 96.77661 37309 ft 481 kts 123°
2026-04-27 13:55 39.26513 96.85269 37309 ft 481 kts 123°
2026-04-27 13:55 39.23494 96.92916 37310 ft 482 kts 122°
2026-04-27 13:56 39.20478 97.00633 37308 ft 481 kts 122°
2026-04-27 13:56 39.17452 97.08258 37309 ft 481 kts 123°
2026-04-27 13:57 39.14402 97.15924 37309 ft 483 kts 123°
2026-04-27 13:57 39.11333 97.23618 37309 ft 484 kts 123°
2026-04-27 13:58 39.08261 97.31300 37309 ft 485 kts 123°
2026-04-27 13:58 39.05175 97.38998 37309 ft 486 kts 123°
2026-04-27 13:59 39.02080 97.46699 37309 ft 488 kts 123°
2026-04-27 13:59 38.98964 97.54433 37307 ft 489 kts 123°
2026-04-27 14:00 38.95825 97.62205 37309 ft 490 kts 123°
2026-04-27 14:00 38.92692 97.69941 37308 ft 491 kts 124°
2026-04-27 14:01 38.89529 97.77717 37310 ft 491 kts 124°
2026-04-27 14:01 38.86371 97.85442 37308 ft 492 kts 125°
2026-04-27 14:02 38.83193 97.93169 37309 ft 492 kts 124°
2026-04-27 14:02 38.80024 98.00936 37308 ft 493 kts 124°
2026-04-27 14:03 38.76850 98.08701 37309 ft 493 kts 124°
2026-04-27 14:03 38.73671 98.16399 37309 ft 492 kts 125°
2026-04-27 14:04 38.70466 98.24120 37308 ft 492 kts 125°
2026-04-27 14:04 38.67274 98.31874 37310 ft 492 kts 124°
2026-04-27 14:05 38.64094 98.39567 37310 ft 491 kts 124°
2026-04-27 14:05 38.60892 98.47259 37310 ft 492 kts 125°
2026-04-27 14:06 38.57663 98.54978 37307 ft 493 kts 125°
2026-04-27 14:06 38.54456 98.62654 37308 ft 492 kts 124°
2026-04-27 14:07 38.51252 98.70372 37309 ft 491 kts 125°
2026-04-27 14:07 38.48071 98.77999 37308 ft 491 kts 125°
2026-04-27 14:08 38.44817 98.85684 37308 ft 491 kts 126°
2026-04-27 14:08 38.41563 98.93336 37311 ft 492 kts 126°
2026-04-27 14:09 38.38335 99.00990 37309 ft 492 kts 126°
2026-04-27 14:09 38.35081 99.08660 37309 ft 493 kts 126°
2026-04-27 14:10 38.31824 99.16317 37309 ft 495 kts 126°
2026-04-27 14:10 38.28550 99.24000 37309 ft 496 kts 126°
2026-04-27 14:11 38.25261 99.31699 37309 ft 496 kts 126°
2026-04-27 14:11 38.21974 99.39378 37308 ft 495 kts 126°
2026-04-27 14:12 38.18690 99.47029 37309 ft 495 kts 126°
2026-04-27 14:12 38.15406 99.54659 37309 ft 495 kts 126°
2026-04-27 14:13 38.12110 99.62302 37308 ft 495 kts 126°
2026-04-27 14:13 38.08794 99.69974 37309 ft 494 kts 126°
2026-04-27 14:14 38.05488 99.77598 37309 ft 494 kts 126°
2026-04-27 14:14 38.02195 99.85177 37308 ft 494 kts 126°
2026-04-27 14:15 37.98872 99.92807 37309 ft 494 kts 126°
2026-04-27 14:15 37.95560 100.00391 37322 ft 494 kts 126°
2026-04-27 14:16 37.92240 100.07974 37336 ft 494 kts 126°
2026-04-27 14:16 37.88902 100.15586 37337 ft 495 kts 126°
2026-04-27 14:17 37.85573 100.23158 37334 ft 495 kts 126°
2026-04-27 14:17 37.82227 100.30750 37336 ft 496 kts 126°
2026-04-27 14:18 37.78878 100.38333 37335 ft 495 kts 126°
2026-04-27 14:18 37.75519 100.45918 37337 ft 495 kts 126°
2026-04-27 14:19 37.72170 100.53462 37336 ft 495 kts 126°
2026-04-27 14:19 37.68814 100.61008 37335 ft 495 kts 126°
2026-04-27 14:20 37.65443 100.68572 37336 ft 493 kts 127°
2026-04-27 14:20 37.62217 100.76186 37336 ft 495 kts 125°
2026-04-27 14:21 37.59013 100.83877 37335 ft 496 kts 125°
2026-04-27 14:21 37.55785 100.91521 37335 ft 496 kts 125°
2026-04-27 14:22 37.52551 100.99178 37336 ft 497 kts 126°
2026-04-27 14:22 37.49308 101.06831 37337 ft 497 kts 126°
2026-04-27 14:23 37.46036 101.14515 37336 ft 497 kts 126°
2026-04-27 14:23 37.42809 101.22100 37337 ft 497 kts 126°
2026-04-27 14:24 37.39556 101.29764 37337 ft 498 kts 125°
2026-04-27 14:24 37.36317 101.37408 37335 ft 497 kts 126°
2026-04-27 14:25 37.33007 101.45058 37335 ft 497 kts 126°
2026-04-27 14:25 37.29992 101.52846 37336 ft 507 kts 116°
2026-04-27 14:26 37.27927 101.61338 37337 ft 510 kts 111°
2026-04-27 14:26 37.25906 101.69881 37335 ft 508 kts 113°
2026-04-27 14:27 37.23910 101.78313 37336 ft 508 kts 112°
2026-04-27 14:27 37.21947 101.86803 37334 ft 510 kts 112°
2026-04-27 14:28 37.19980 101.95325 37338 ft 510 kts 112°
2026-04-27 14:28 37.17992 102.03889 37336 ft 510 kts 112°
2026-04-27 14:29 37.16010 102.12349 37335 ft 509 kts 112°
2026-04-27 14:29 37.14008 102.20858 37336 ft 508 kts 112°
2026-04-27 14:30 37.11797 102.29179 37335 ft 504 kts 118°
2026-04-27 14:30 37.08654 102.36857 37337 ft 493 kts 129°